Flag for Saudi Arabia Weather past 2 weeks in Jeddah, Saudi Arabia

Now
90 °F

Sunny.


Feels Like: 90 °F
Forecast: 78 / 90 °F
Wind: 12 mph from Southwest

Location: Jeddah King Abdul Aziz International Airport

Current Time: Apr 21, 2015 at 5:07:57 PM

Latest Report: Apr 21, 2015 at 4:00 PM


Visibility: 10 mi

Pressure: 29.80 "Hg

Humidity: 41%

Dew point: 63 °F

Location of JeddahLocation

Historic Weather in Jeddah — Graph

°F

Jeddah temperature yesterday

Maximum temperature yesterday: 88 °F (at 2:00 PM)
Minimum temperature yesterday: 75 °F (at 6:00 AM)
Average temperature yesterday: 83 °F

Past Weeks' High & Low Weather Summary

 TemperatureHumidityPressure
High95 °F (Apr 10, 12:00 PM)74% (Apr 7, 12:00 AM)30.07 "Hg (Apr 7, 12:00 AM)
Low68 °F (Apr 13, 6:00 AM)20% (Apr 7, 5:00 PM)29.65 "Hg (Apr 10, 3:00 AM)
Average81 °F49%29.85 "Hg
* Reported Apr 6 4:00 PM — Apr 21 4:00 PM, Jeddah, Weather by CustomWeather, © 2015

Note: Actual official high and low records may vary slightly from our data, if they occured in-between our weather recording intervals... More about our weather records

Advertising

Jeddah weather history for previous 24 hours

 ConditionsComfort  
Time TempWeatherWind HumidityBarometerVisibility
4:00 PM
Tue, Apr 21
90 °FSunny.12 mph41%29.80 "Hg10 mi
3:00 PM91 °FSunny.12 mph38%29.80 "Hg10 mi
2:00 PM91 °FSunny.14 mph32%29.80 "Hg10 mi
1:00 PM93 °FSunny.12 mph30%29.83 "Hg10 mi
12:00 PM95 °FSunny.12 mph23%29.83 "Hg10 mi
11:00 AM93 °FSunny.9 mph24%29.83 "Hg10 mi
10:00 AM91 °FSunny.5 mph24%29.83 "Hg10 mi
9:00 AM88 °FSunny.2 mph31%29.83 "Hg5 mi
8:00 AM82 °FSunny.No wind42%29.83 "Hg5 mi
7:00 AM79 °FSunny.No wind51%29.80 "Hg5 mi
6:00 AM79 °FSunny.No wind48%29.77 "Hg5 mi
5:00 AM79 °FClear.No wind54%29.77 "Hg10 mi
4:00 AM79 °FClear.No wind54%29.77 "Hg10 mi
3:00 AM79 °FClear.No wind54%29.77 "Hg10 mi
2:00 AM81 °FClear.No wind54%29.77 "Hg10 mi
1:00 AM81 °FClear.No wind54%29.80 "Hg10 mi
12:00 AM82 °FClear.7 mph51%29.80 "Hg10 mi
11:00 PM
Mon, Apr 20
82 °FClear.7 mph51%29.83 "Hg10 mi
10:00 PM82 °FClear.7 mph55%29.83 "Hg10 mi
9:00 PM84 °FClear.5 mph48%29.80 "Hg10 mi
8:00 PM84 °FClear.5 mph45%29.80 "Hg10 mi
7:00 PM86 °FClear.12 mph43%29.80 "Hg10 mi
6:00 PM86 °FSunny.9 mph46%29.77 "Hg10 mi
5:00 PM88 °FSunny.12 mph40%29.77 "Hg10 mi
Weather by CustomWeather, © 2015

See weather overviewHow to use our weather pages